Main page
METAR-TAF:

METAR-TAF

Airports :

Trieste, Italy

latitude: 45-39N, longitude: 013-45E, elevation: 8 m

Current weather observation

The report was made 34 minutes ago, at 08:55 UTC
Wind 4 kt from the East
Temperature 30°C
Humidity 40%
Pressure 1013 hPa
Visibility 10 km or more
no clouds below 1500 m and no cumulonimbus

METAR: LIVT 170855Z 08004KT CAVOK 30/15 Q1013 RMK SKC QUK 0 QUL 0 VIS MAR 20 KM VIS MIN 9999

Time: 11:29 (09:29 UTC)


TAF: missing

Weather observations and forecasts of more than 4000 airports (METAR and TAF reports).

The available stations are represented by yellow and red dots on the map.

Hover mouse over dot to see the name of the station.

Then click to see weather observations and forecasts.

To change the map : click on the green buttons with a black cross to zoom in, on the green button with a dash to zoom out, or on the green arrows for adjacent maps.


METAR-TAF: